Selawik, AK

5:23 AM AKDT on October 17, 2017 (GMT -0800)
Selawik

Weather History for PASK - November, 2013

Change the Weather History Date:

Tuesday, November 5, 2013

  Actual Average Record
Temperature  
Mean Temperature 10 °F -  
Max Temperature 26 °F 14 °F 35 °F (2003)
Min Temperature -5 °F 5 °F -14 °F (2001)
Degree Days  
Heating Degree Days 54    
Moisture  
Dew Point 4 °F    
Average Humidity 77    
Maximum Humidity 100    
Minimum Humidity 66    
Precipitation  
Precipitation 0.00 in - - ()
Sea Level Pressure  
Sea Level Pressure 30.07 in    
Wind  
Wind Speed 10 mph (WNW)    
Max Wind Speed 17 mph    
Max Gust Speed 23 mph    
Visibility 10 miles    
Events      
Averages and records for this station are not official NWS values.
T = Trace of Precipitation, MM = Missing Value Source: NWS Daily Summary

Daily Weather History Graph

Daily Weather History Graph

Search for Another Location

Airport or City:

Trip Planner

Search our weather history database for the weather conditions in past years. The results will help you decide how hot, cold, wet, or windy it might be!

Date:

Astronomy

Nov. 05, 2013 Rise Set
Actual Time 9:56 AM AKST 4:49 PM AKST
Civil Twilight 8:53 AM AKST 5:52 PM AKST
Nautical Twilight 7:49 AM AKST 6:56 PM AKST
Astronomical Twilight 6:48 AM AKST 7:57 PM AKST
Moon 1:19 PM AKST (11/5) 6:07 PM AKST (11/5)
Length of Visible Light 8h 58m
Length of Day
6h 52m
Waxing Crescent, 7% of the Moon is Illuminated
Nov 5
Waxing Crescent
Nov 9
First Quarter
Nov 17
Full
Nov 25
Last Quarter
Dec 2
New

Hourly Weather History & Observations

Time (AKST) Temp. Windchill Dew Point Humidity Pressure Visibility Wind Dir Wind Speed Gust Speed Precip Events Conditions
12:16 AM 26.6 °F 18.2 °F 23.0 °F 86% 29.67 in 10.0 mi West 8.1 mph - N/A   Overcast
12:36 AM 26.6 °F 18.2 °F 23.0 °F 86% 29.68 in 10.0 mi West 8.1 mph - N/A   Overcast
12:56 AM 26.6 °F 16.8 °F 23.0 °F 86% 29.68 in 10.0 mi West 10.4 mph - N/A   Overcast
1:16 AM 26.6 °F 15.7 °F 21.2 °F 80% 29.69 in 10.0 mi West 12.7 mph 16.1 mph N/A   Overcast
1:36 AM 23.0 °F 11.7 °F 19.4 °F 86% 29.70 in 10.0 mi West 11.5 mph 19.6 mph N/A   Overcast
1:56 AM 21.2 °F 10.9 °F 17.6 °F 86% 29.71 in 10.0 mi West 9.2 mph - N/A   Overcast
2:16 AM 21.2 °F 10.9 °F 17.6 °F 86% 29.72 in 10.0 mi West 9.2 mph - N/A   Overcast
2:36 AM 21.2 °F 9.5 °F 17.6 °F 86% 29.73 in 10.0 mi WNW 11.5 mph - N/A   Overcast
2:56 AM 24.8 °F 12.9 °F 21.2 °F 86% 29.74 in 10.0 mi WNW 13.8 mph - N/A   Overcast
3:16 AM 23.0 °F 11.1 °F 17.6 °F 80% 29.76 in 10.0 mi West 12.7 mph - N/A   Overcast
3:36 AM 21.2 °F 7.8 °F 15.8 °F 80% 29.78 in 10.0 mi WNW 15.0 mph 19.6 mph N/A   Overcast
3:56 AM 19.4 °F 5.0 °F 14.0 °F 80% 29.79 in 10.0 mi WNW 16.1 mph 19.6 mph N/A   Overcast
4:16 AM 19.4 °F 6.0 °F 12.2 °F 74% 29.80 in 10.0 mi WNW 13.8 mph 18.4 mph N/A   Overcast
4:36 AM 19.4 °F 4.5 °F 12.2 °F 74% 29.81 in 10.0 mi WNW 17.3 mph 23.0 mph N/A   Overcast
4:56 AM 17.6 °F 2.2 °F 8.6 °F 68% 29.82 in 10.0 mi WNW 17.3 mph 21.9 mph N/A   Mostly Cloudy
5:16 AM 15.8 °F 2.1 °F 6.8 °F 68% 29.84 in 10.0 mi WNW 12.7 mph - N/A   Partly Cloudy
5:36 AM 14.0 °F 0.5 °F 6.8 °F 73% 29.85 in 10.0 mi WNW 11.5 mph - N/A   Clear
5:56 AM 12.2 °F 0.7 °F 6.8 °F 79% 29.87 in 10.0 mi NW 8.1 mph 17.3 mph N/A   Clear
6:16 AM 12.2 °F -1.8 °F 5.0 °F 73% 29.87 in 10.0 mi WNW 11.5 mph - N/A   Clear
6:36 AM 12.2 °F -3.1 °F 5.0 °F 73% 29.89 in 10.0 mi WNW 13.8 mph - N/A   Clear
6:56 AM 10.4 °F -5.4 °F 5.0 °F 79% 29.90 in 10.0 mi West 13.8 mph - N/A   Clear
7:16 AM 10.4 °F -6.6 °F 3.2 °F 73% 29.91 in 10.0 mi West 16.1 mph 19.6 mph N/A   Clear
7:36 AM 10.4 °F -5.4 °F 3.2 °F 73% 29.92 in 10.0 mi West 13.8 mph - N/A   Clear
7:56 AM 8.6 °F -8.3 °F 3.2 °F 79% 29.94 in 10.0 mi West 15.0 mph - N/A   Clear
8:16 AM 8.6 °F -7.0 °F 3.2 °F 79% 29.95 in 10.0 mi West 12.7 mph - N/A   Clear
8:36 AM 10.4 °F -4.8 °F 3.2 °F 73% 29.97 in 10.0 mi West 12.7 mph - N/A   Clear
8:56 AM 10.4 °F -4.8 °F 1.4 °F 67% 29.98 in 10.0 mi West 12.7 mph - N/A   Clear
9:16 AM 8.6 °F -7.0 °F 1.4 °F 73% 30.00 in 10.0 mi WNW 12.7 mph - N/A   Clear
9:36 AM 8.6 °F -5.5 °F 1.4 °F 73% 30.01 in 10.0 mi West 10.4 mph - N/A   Clear
9:56 AM 8.6 °F -5.5 °F 1.4 °F 73% 30.02 in 10.0 mi WNW 10.4 mph - N/A   Clear
10:16 AM 8.6 °F -6.3 °F 1.4 °F 73% 30.03 in 10.0 mi WNW 11.5 mph - N/A   Clear
10:36 AM 6.8 °F -5.9 °F -0.4 °F 72% 30.05 in 10.0 mi WNW 8.1 mph - N/A   Clear
10:56 AM 8.6 °F 0.1 °F 1.4 °F 73% 30.06 in 10.0 mi NW 4.6 mph - N/A   Clear
11:16 AM 8.6 °F -2.6 °F 1.4 °F 73% 30.07 in 10.0 mi WNW 6.9 mph - N/A   Clear
11:36 AM 8.6 °F -4.7 °F 1.4 °F 73% 30.08 in 10.0 mi WNW 9.2 mph - N/A   Clear
11:56 AM 8.6 °F -2.6 °F 1.4 °F 73% 30.09 in 10.0 mi West 6.9 mph - N/A   Clear
12:16 PM 8.6 °F -2.6 °F 1.4 °F 73% 30.10 in 10.0 mi West 6.9 mph - N/A   Clear
12:36 PM 8.6 °F -3.7 °F 1.4 °F 73% 30.11 in 10.0 mi West 8.1 mph - N/A   Clear
12:56 PM 8.6 °F -4.7 °F 1.4 °F 73% 30.12 in 10.0 mi West 9.2 mph - N/A   Clear
1:16 PM 8.6 °F -2.6 °F 1.4 °F 73% 30.13 in 10.0 mi West 6.9 mph - N/A   Clear
1:36 PM 8.6 °F -3.7 °F 1.4 °F 73% 30.15 in 10.0 mi West 8.1 mph - N/A   Clear
1:56 PM 8.6 °F -3.7 °F 1.4 °F 73% 30.16 in 10.0 mi West 8.1 mph - N/A   Clear
2:16 PM 10.4 °F -1.5 °F 3.2 °F 73% 30.17 in 9.0 mi West 8.1 mph - N/A   Clear
2:36 PM 10.4 °F -1.5 °F 1.4 °F 67% 30.18 in 10.0 mi WNW 8.1 mph - N/A   Clear
2:56 PM 10.4 °F 0.8 °F 1.4 °F 67% 30.19 in 10.0 mi WNW 5.8 mph - N/A   Clear
3:16 PM 10.4 °F -2.4 °F 1.4 °F 67% 30.20 in 10.0 mi West 9.2 mph - N/A   Clear
3:36 PM 8.6 °F -5.5 °F -0.4 °F 67% 30.21 in 10.0 mi WNW 10.4 mph - N/A   Clear
3:56 PM 8.6 °F -5.5 °F -0.4 °F 67% 30.22 in 10.0 mi WNW 10.4 mph - N/A   Clear
4:16 PM 6.8 °F -7.8 °F -2.2 °F 67% 30.23 in 10.0 mi WNW 10.4 mph - N/A   Clear
4:36 PM 6.8 °F -5.9 °F -2.2 °F 67% 30.24 in 10.0 mi WNW 8.1 mph - N/A   Clear
4:56 PM 5.0 °F -8.1 °F -2.2 °F 72% 30.25 in 10.0 mi WNW 8.1 mph - N/A   Clear
5:16 PM 5.0 °F -6.9 °F -0.4 °F 78% 30.26 in 10.0 mi WNW 6.9 mph - N/A   Clear
5:36 PM 5.0 °F -8.1 °F -2.2 °F 72% 30.26 in 10.0 mi WNW 8.1 mph - N/A   Clear
5:56 PM 6.8 °F -4.8 °F -2.2 °F 67% 30.28 in 10.0 mi WNW 6.9 mph - N/A   Clear
6:16 PM 3.2 °F -6.2 °F -2.2 °F 78% 30.29 in 10.0 mi WNW 4.6 mph - N/A   Clear
6:36 PM 3.2 °F -7.8 °F -0.4 °F 85% 30.29 in 10.0 mi WNW 5.8 mph - N/A   Clear
6:56 PM 3.2 °F -7.8 °F -2.2 °F 78% 30.30 in 10.0 mi NW 5.8 mph - N/A   Clear
7:16 PM 3.2 °F -7.8 °F -2.2 °F 78% 30.31 in 10.0 mi NW 5.8 mph - N/A   Clear
7:36 PM 1.4 °F -6.2 °F -2.2 °F 85% 30.31 in 10.0 mi West 3.5 mph - N/A   Clear
7:56 PM 1.4 °F - -4.0 °F 78% 30.31 in 10.0 mi Calm Calm - N/A   Clear
8:16 PM 1.4 °F -6.2 °F -5.8 °F 72% 30.31 in 10.0 mi NNW 3.5 mph - N/A   Clear
8:36 PM 1.4 °F - -2.2 °F 85% 30.33 in 10.0 mi Calm Calm - N/A   Clear
8:56 PM 3.2 °F -4.2 °F -2.2 °F 78% 30.33 in 10.0 mi WNW 3.5 mph - N/A   Clear
9:16 PM 1.4 °F -6.2 °F -7.6 °F 66% 30.32 in 10.0 mi NW 3.5 mph - N/A   Clear
9:36 PM 1.4 °F - 1.4 °F 100% 30.33 in 10.0 mi Calm Calm - N/A   Clear
9:56 PM -0.4 °F - -7.6 °F 72% 30.33 in 10.0 mi Calm Calm - N/A   Clear
10:16 PM -0.4 °F -12.0 °F -5.8 °F 78% 30.34 in 10.0 mi South 5.8 mph - N/A   Clear
10:36 PM -4.0 °F - -11.2 °F 71% 30.34 in 10.0 mi Calm Calm - N/A   Clear
10:56 PM -5.8 °F -14.5 °F -7.6 °F 92% 30.35 in 10.0 mi SW 3.5 mph - N/A   Clear
11:16 PM -4.0 °F - -5.8 °F 92% 30.35 in 10.0 mi Calm Calm - N/A   Clear
11:36 PM -2.2 °F - -2.2 °F 100% 30.36 in 10.0 mi Calm Calm - N/A   Clear
11:56 PM -0.4 °F - -2.2 °F 92% 30.37 in 9.0 mi Calm Calm - N/A   Clear